CZ-6A DEB, 61812

Orbit data source: Space-Track

CZ-6A DEB, 61812 is space debris in LEO originally from a launch on Tue, 06 Aug 2024 UTC launched from the Taiyaun Space Center, China (TSC). Debris objects in space refer to the collection of defunct objects orbiting the Earth. Examples of debris include non-operational satellites, rocket bodies, and fragments generated from explosions, collisions, or faulty payload assembly.

Loading next visibility...
Identifier
61812, 2024-140ACC
Orbit
LEO
Country
Flag of CNCN / PRC
Related business
Manufacturer
SAST
Mission
Spacecraft
Bus & Motor
Unknown
Mass
Unknown
Launch date (UTC)
2024-08-06 (2 years ago)
Launch vehicle
Unknown
Launch site
Taiyaun Space Center, China (TSC)
Object type
Payload
Rocket body
Debris
Shape & HBR
Unknown shape, 0.1 m
Radar Cross Section
Medium (>0.1 m² and <1 m²)

Expand to show TLE details & history
Last TLE update: 1 day ago

TLE from 1 day ago
0 CZ-6A DEB
1 61812U 24140ACC 26170.80536807  .00002254  00000-0  83568-3 0  9998
2 61812  89.3852 304.3951 0086132 218.7049 140.7956 14.29970423 93332
Epoch: 2026-06-19T19:19Z
TLE epoch observation values (Epoch: 2026-06-19T19:19:43.801Z)
Latitude
Longitude
106.43352°
Altitude
842.974 km
Speed
7.406 km/s
True Right ascension
20h 17m 34s
True Declination
0° 00' 00"
Sunlit
Object was in full shadow at epoch
Visualization orbit readout
Latitude
Unknown
Longitude
Unknown
Altitude
Unknown
Speed
Unknown
Apparent Right ascension
Unknown
Apparent Declination
Unknown
Sunlit
N/A
Visualization observer readout
Local Sidereal Time
07:21:15
Azimuth
Unknown
Elevation
Unknown
Doppler factor
Unknown
Orbital elements
Apogee altitude
850.494 km
Perigee altitude
727.035 km
Semi-major axis
7,166.902 km
Eccentricity
0.00861
Inclination
89.3852°
RAAN
304.3951°
Arg. of periapsis
218.7049°
True anomaly
141.4143°
Mean anomaly
140.7956°
Eccentric anomaly
141.10546°
Mean motion
3.57722 °/min
Orbital period
100.64 mins
BSTAR
0.00083568
Loading maneuver chart data...
Computing Atmospheric mass density...
Loading historical data...
Loading historical data...
Loading historical data...
Loading historical data...
Loading historical data...
Loading historical data...
Loading historical data...

Documentation

Showing up to 5 results
|